Clarion, IA

3:06 PM CST on December 12, 2019 (GMT -0600)
Clarion Municipal

Weather History for KCAV - November, 2019

Change the Weather History Date:

Monday, November 18, 2019

  Actual Average Record
Temperature  
Mean Temperature 39 °F -  
Max Temperature 46 °F 44 °F 73 °F (1999)
Min Temperature 32 °F 24 °F -5 °F (2018)
Degree Days  
Heating Degree Days 26    
Moisture  
Dew Point 37 °F    
Average Humidity 93    
Maximum Humidity 100    
Minimum Humidity 76    
Precipitation  
Precipitation 0.16 in - - ()
Sea Level Pressure  
Sea Level Pressure 29.72 in    
Wind  
Wind Speed 6 mph (SSE)    
Max Wind Speed 16 mph    
Max Gust Speed 16 mph    
Visibility 8 miles    
Events      
Averages and records for this station are not official NWS values.
T = Trace of Precipitation, MM = Missing Value Source: NWS Daily Summary

Daily Weather History Graph

Daily Weather History Graph

Search for Another Location

Airport or City:

Astronomy

Nov. 18, 2019 Rise Set
Actual Time 7:10 AM CST 4:49 PM CST
Civil Twilight 6:39 AM CST 5:20 PM CST
Nautical Twilight 6:05 AM CST 5:54 PM CST
Astronomical Twilight 5:31 AM CST 6:28 PM CST
Moon 10:35 PM CST (11/18) 12:42 PM CST (11/18)
Length of Visible Light 10h 40m
Length of Day
9h 39m
Waning Gibbous, 63% of the Moon is Illuminated
Nov 18
Waning Gibbous
Nov 19
Last Quarter
Nov 26
New
Dec 4
First Quarter
Dec 11
Full

Hourly Weather History & Observations

Time (CST) Temp. Windchill Dew Point Humidity Pressure Visibility Wind Dir Wind Speed Gust Speed Precip Events Conditions
12:35 AM 33.8 °F - 32.0 °F 93% 29.86 in 10.0 mi Calm Calm - N/A   Overcast
1:35 AM 33.8 °F - 32.0 °F 93% 29.83 in 10.0 mi Calm Calm - N/A   Overcast
1:55 AM 33.8 °F - 32.0 °F 93% 29.83 in 10.0 mi Calm Calm - N/A   Overcast
2:35 AM 33.8 °F 28.6 °F 32.0 °F 93% 29.82 in 10.0 mi South 5.8 mph - N/A   Overcast
2:55 AM 33.8 °F 30.8 °F 32.0 °F 93% 29.82 in 10.0 mi SSW 3.5 mph - N/A   Overcast
3:15 AM 33.8 °F 28.6 °F 32.0 °F 93% 29.82 in 10.0 mi SW 5.8 mph - N/A   Overcast
3:35 AM 33.8 °F 29.6 °F 32.0 °F 93% 29.82 in 10.0 mi SW 4.6 mph - N/A   Overcast
3:55 AM 33.8 °F 30.8 °F 32.0 °F 93% 29.82 in 10.0 mi SW 3.5 mph - N/A   Overcast
4:15 AM 33.8 °F 30.8 °F 32.0 °F 93% 29.82 in 10.0 mi SSE 3.5 mph - N/A   Overcast
4:35 AM 33.8 °F - 32.0 °F 93% 29.82 in 10.0 mi Calm Calm - N/A   Overcast
4:55 AM 33.8 °F 29.6 °F 32.0 °F 93% 29.81 in 10.0 mi SE 4.6 mph - N/A   Overcast
5:15 AM 33.8 °F 29.6 °F 32.0 °F 93% 29.80 in 10.0 mi SE 4.6 mph - N/A   Overcast
5:35 AM 33.8 °F 27.7 °F 32.0 °F 93% 29.79 in 10.0 mi SSE 6.9 mph - N/A   Overcast
5:55 AM 33.8 °F 28.6 °F 32.0 °F 93% 29.79 in 10.0 mi SSE 5.8 mph - N/A   Overcast
6:15 AM 32.0 °F 27.5 °F 32.0 °F 100% 29.78 in 10.0 mi SSE 4.6 mph - N/A   Mostly Cloudy
6:35 AM 32.0 °F 25.6 °F 32.0 °F 100% 29.79 in 10.0 mi SSE 6.9 mph - N/A   Mostly Cloudy
6:55 AM 32.0 °F 26.4 °F 32.0 °F 100% 29.78 in 10.0 mi SSE 5.8 mph - N/A   Scattered Clouds
7:15 AM 32.0 °F 25.6 °F 32.0 °F 100% 29.78 in 6.0 mi SE 6.9 mph - N/A   Mostly Cloudy
7:35 AM 32.0 °F 25.6 °F 32.0 °F 100% 29.78 in 8.0 mi SSE 6.9 mph - N/A   Scattered Clouds
7:55 AM 32.0 °F 25.6 °F 32.0 °F 100% 29.78 in 7.0 mi SE 6.9 mph - N/A   Clear
8:15 AM 33.8 °F 27.0 °F 33.8 °F 100% 29.78 in 7.0 mi SE 8.1 mph - N/A   Clear
8:35 AM 33.8 °F 26.4 °F 33.8 °F 100% 29.77 in 7.0 mi SE 9.2 mph - N/A   Clear
8:55 AM 35.6 °F 28.0 °F 33.8 °F 93% 29.75 in 7.0 mi SSE 10.4 mph - N/A   Partly Cloudy
9:15 AM 35.6 °F 27.5 °F 35.6 °F 100% 29.75 in 9.0 mi SSE 11.5 mph - N/A   Partly Cloudy
9:35 AM 37.4 °F 29.3 °F 35.6 °F 93% 29.74 in 10.0 mi SSE 12.7 mph - N/A   Partly Cloudy
9:55 AM 39.2 °F 31.6 °F 37.4 °F 93% 29.74 in 10.0 mi SSE 12.7 mph - N/A   Clear
10:15 AM 39.2 °F 30.8 °F 37.4 °F 93% 29.73 in 10.0 mi SSE 15.0 mph - N/A   Mostly Cloudy
10:35 AM 39.2 °F 30.5 °F 37.4 °F 93% 29.73 in 10.0 mi South 16.1 mph - N/A   Overcast
10:55 AM 41.0 °F 33.9 °F 37.4 °F 87% 29.73 in 10.0 mi SSE 12.7 mph - N/A   Overcast
11:15 AM 41.0 °F 33.9 °F 37.4 °F 87% 29.72 in 10.0 mi SSE 12.7 mph - N/A   Overcast
11:35 AM 42.8 °F 35.8 °F 37.4 °F 81% 29.71 in 10.0 mi South 13.8 mph - N/A   Mostly Cloudy
11:55 AM 42.8 °F 36.2 °F 39.2 °F 87% 29.69 in 10.0 mi SSE 12.7 mph - N/A   Scattered Clouds
12:35 PM 44.6 °F 37.8 °F 39.2 °F 81% 29.68 in 10.0 mi South 15.0 mph - N/A   Scattered Clouds
12:55 PM 46.4 °F 40.4 °F 39.2 °F 76% 29.67 in 10.0 mi SSE 13.8 mph - N/A   Overcast
1:15 PM 44.6 °F 37.8 °F 39.2 °F 81% 29.66 in 10.0 mi South 15.0 mph - N/A   Overcast
1:35 PM 44.6 °F 37.4 °F 39.2 °F 81% 29.65 in 10.0 mi SSE 16.1 mph - N/A   Overcast
1:55 PM 44.6 °F 38.1 °F 39.2 °F 81% 29.65 in 10.0 mi South 13.8 mph - N/A   Overcast
2:15 PM 44.6 °F 38.4 °F 39.2 °F 81% 29.64 in 10.0 mi SSE 12.7 mph - N/A   Overcast
2:35 PM 44.6 °F 38.4 °F 39.2 °F 81% 29.64 in 10.0 mi SSE 12.7 mph - N/A   Mostly Cloudy
2:55 PM 44.6 °F 38.1 °F 39.2 °F 81% 29.64 in 10.0 mi SSE 13.8 mph - N/A   Mostly Cloudy
3:15 PM 44.6 °F 39.2 °F 39.2 °F 81% 29.64 in 10.0 mi SSE 10.4 mph 16.1 mph N/A   Mostly Cloudy
3:35 PM 44.6 °F 38.8 °F 39.2 °F 81% 29.64 in 10.0 mi SSE 11.5 mph - N/A   Mostly Cloudy
3:55 PM 44.6 °F 38.8 °F 39.2 °F 81% 29.64 in 10.0 mi SSE 11.5 mph - N/A   Mostly Cloudy
4:15 PM 44.6 °F 39.2 °F 41.0 °F 87% 29.65 in 10.0 mi South 10.4 mph - N/A   Overcast
4:35 PM 42.8 °F 37.0 °F 41.0 °F 93% 29.65 in 7.0 mi South 10.4 mph - N/A   Overcast
4:55 PM 42.8 °F 37.0 °F 41.0 °F 93% 29.65 in 8.0 mi SSE 10.4 mph - 0.01 in   Overcast
5:15 PM 42.8 °F 38.0 °F 41.0 °F 93% 29.65 in 9.0 mi SSE 8.1 mph - N/A   Overcast
5:35 PM 42.8 °F 38.0 °F 41.0 °F 93% 29.65 in 5.0 mi SSE 8.1 mph - N/A   Overcast
5:55 PM 41.0 °F 35.8 °F 41.0 °F 100% 29.65 in 5.0 mi SSE 8.1 mph - 0.01 in   Overcast
6:35 PM 41.0 °F 35.8 °F 41.0 °F 100% 29.65 in 4.0 mi SSE 8.1 mph - N/A   Overcast
6:55 PM 41.0 °F 36.4 °F 41.0 °F 100% 29.65 in 3.0 mi SSE 6.9 mph - 0.07 in   Overcast
7:15 PM 41.0 °F 34.7 °F 41.0 °F 100% 29.65 in 3.0 mi SSE 10.4 mph - N/A   Overcast
7:35 PM 41.0 °F 39.0 °F 41.0 °F 100% 29.65 in 3.0 mi SE 3.5 mph - N/A   Overcast
7:55 PM 41.0 °F 38.0 °F 41.0 °F 100% 29.66 in 3.0 mi SE 4.6 mph - 0.05 in   Overcast
8:15 PM 41.0 °F 38.0 °F 41.0 °F 100% 29.66 in 2.5 mi SSE 4.6 mph - N/A   Overcast
8:35 PM 41.0 °F 38.0 °F 41.0 °F 100% 29.66 in 2.0 mi SE 4.6 mph - N/A   Overcast
8:55 PM 41.0 °F - 41.0 °F 100% 29.66 in 1.5 mi Calm Calm - 0.01 in   Overcast
9:15 PM 41.0 °F 39.0 °F 41.0 °F 100% 29.66 in 1.5 mi ESE 3.5 mph - N/A   Overcast
9:35 PM 41.0 °F 39.0 °F 41.0 °F 100% 29.67 in 2.0 mi East 3.5 mph - N/A   Overcast
9:55 PM 41.0 °F - 41.0 °F 100% 29.67 in 2.0 mi Calm Calm - 0.01 in   Overcast
10:15 PM 41.0 °F 38.0 °F 41.0 °F 100% 29.66 in 3.0 mi East 4.6 mph - N/A   Overcast
10:35 PM 41.0 °F - 41.0 °F 100% 29.67 in 3.0 mi Calm Calm - N/A   Overcast
10:55 PM 41.0 °F - 41.0 °F 100% 29.67 in 3.0 mi Calm Calm - N/A   Overcast
11:15 PM 39.2 °F - 39.2 °F 100% 29.68 in 3.0 mi Calm Calm - N/A   Overcast
11:35 PM 41.0 °F 39.0 °F 39.2 °F 93% 29.68 in 2.0 mi NNW 3.5 mph - N/A   Overcast
11:55 PM 41.0 °F 34.7 °F 41.0 °F 100% 29.69 in 3.0 mi NW 10.4 mph - N/A   Overcast